This demonstration page uses our WeatherBlox Daily Observations layout. Learn more.

Left ArrowRight Arrow

39.01783, -85.05884

Hourly Observations for September 17, 2020

Temp ( °F °C ) Dew Point ( °F °C ) Humidity (%) Winds ( mph kmh ) Pressure ( in mb ) Visibility ( mi km ) Precip ( " mm )
12:52 am 00:52 Cloudy 61 16.1 55 12.8 81 81 Calm 30.02 1017 10 16 0.00 0.00
1:52 am 01:52 Mostly Cloudy 61 16.1 56 13.3 84 84 Calm 30.01 1016 10 16 0.00 0.00
2:52 am 02:52 Partly Cloudy 58 14.4 53 11.7 84 84 Calm 29.99 1016 10 16 0.00 0.00
3:52 am 03:52 Partly Cloudy 58 14.4 53 11.7 84 84 Calm 29.98 1015 10 16 0.00 0.00
4:52 am 04:52 Mostly Clear 57 13.9 53 11.7 87 87 Calm 29.98 1015 10 16 0.00 0.00
5:52 am 05:52 Mostly Clear 55 12.8 53 11.7 93 93 Calm 29.99 1016 10 16 0.00 0.00
6:52 am 06:52 Mostly Cloudy 59 15 54 12.2 83 83 N 5 7 29.98 1015 8 13 0.00 0.00
7:36 am 07:36 Partly Cloudy with Mist and Fog 55 12.8 53 11.7 93 93 NNE 5 7 30.01 1016 6 10 0.00 0.00
7:52 am 07:52 Partly Cloudy with Fog 56 13.3 54 12.2 93 93 Calm 29.99 1016 6 10 0.00 0.00
8:23 am 08:23 Partly Cloudy with Fog 55 12.8 53 11.7 93 93 N 6 9 30.01 1016 2 3 0.00 0.00
8:38 am 08:38 Partly Cloudy with Mist and Fog 55 12.8 54 12.2 96 96 Calm 30.01 1016 2 2 0.00 0.00
8:52 am 08:52 Partly Cloudy with Mist and Fog 57 13.9 55 12.8 93 93 Calm 29.99 1016 2 3 0.00 0.00
8:58 am 08:58 Partly Cloudy with Mist and Fog 57 13.9 55 12.8 93 93 Calm 30.01 1016 3 5 0.00 0.00
9:20 am 09:20 Mostly Sunny 60 15.6 57 13.9 90 90 Calm 30.00 1016 7 11 0.00 0.00
9:52 am 09:52 Sunny 64 17.8 56 13.3 75 75 NE 8 13 30.01 1016 8 13 0.00 0.00
10:52 am 10:52 Sunny 70 21.1 54 12.2 57 57 NE 9 15 30.01 1016 10 16 0.00 0.00
11:52 am 11:52 Sunny 74 23.3 53 11.7 48 48 NE 9 15 30.01 1016 10 16 0.00 0.00
12:52 pm 12:52 Sunny 78 25.6 49 9.4 36 36 E 13 20 29.99 1016 10 16 0.00 0.00
1:52 pm 13:52 Sunny 79 26.1 51 10.6 38 38 ENE 10 17 29.98 1015 10 16 0.00 0.00
2:52 pm 14:52 Mostly Sunny 80 26.7 48 8.9 33 33 E 10 17 29.96 1015 10 16 0.00 0.00
3:52 pm 15:52 Mostly Sunny 81 27.2 49 9.4 33 33 ENE 7 11 29.94 1014 10 16 0.00 0.00
4:52 pm 16:52 Mostly Sunny 81 27.2 51 10.6 35 35 NE 10 17 29.93 1014 10 16 0.00 0.00
5:52 pm 17:52 Mostly Sunny 80 26.7 53 11.7 39 39 NNE 10 17 29.93 1014 10 16 0.00 0.00
6:52 pm 18:52 Mostly Cloudy 77 25 58 14.4 52 52 N 16 26 29.93 1014 10 16 0.00 0.00
7:52 pm 19:52 Partly Cloudy 73 22.8 58 14.4 59 59 NNE 15 24 29.96 1014 10 16 0.00 0.00
8:52 pm 20:52 Mostly Cloudy 71 21.7 57 13.9 61 61 NNE 16 26 29.98 1015 10 16 0.00 0.00
9:52 pm 21:52 Partly Cloudy 68 20 56 13.3 65 65 NE 15 24 30.01 1016 10 16 0.00 0.00
10:52 pm 22:52 Mostly Clear 66 18.9 54 12.2 65 65 NNE 12 19 30.02 1017 10 16 0.00 0.00
11:52 pm 23:52 Mostly Clear 64 17.8 51 10.6 63 63 NNE 10 17 30.03 1017 10 16 0.00 0.00

Powered by AerisWeather